{"data":{"norad_id":58693,"intl_designator":"2023-212C","name":"HULIANWANG JISHU SHIYAN*","alt_names":[],"object_type":"PAYLOAD","status":"ACTIVE","operator":null,"country":"PRC","launch_date":"2023-12-30","launch_site_code":"JSC","launch_vehicle":null,"mission":null,"orbit_class":"UNKNOWN","rcs_meters":null,"size_class":null,"mass_kg":null,"dimensions":null,"purposes":[],"wikipedia_slug":null,"has_3d_model":false,"image_url":null,"decayed_at":null,"tle_current":{"epoch":"2026-09-22T17:48:43.035264Z","epoch_age_seconds":54756,"freshness":"FRESH","line1":"1 58693U 23212C   26265.74216476 -.00000099  00000+0  53035-4 0  9997","line2":"2 58693  50.0008 346.8072 0000539  42.4074 317.6845 13.41465443134359","mean_motion":13.41465443,"eccentricity":5.39e-5,"inclination_deg":50.0008,"raan_deg":346.8072,"arg_perigee_deg":42.4074,"mean_anomaly_deg":317.6845,"bstar":5.3035e-5,"rev_number":13435,"period_min":107.34529223352,"perigee_km":1103.4220131215,"apogee_km":1104.2285686565,"semimajor_km":7481.962290889,"source":"CELESTRAK","updated_at":"2026-09-23T09:00:18.893424Z"}}}